THORAD AGENA D DEB, 42531

Orbit data source: Space-Track

THORAD AGENA D DEB, 42531 is space debris in SSO originally from a launch on Wed, 08 Apr 1970 UTC launched from the Air Force Western Test Range (AFWTR). Debris objects in space refer to the collection of defunct objects orbiting the Earth. Examples of debris include non-operational satellites, rocket bodies, and fragments generated from explosions, collisions, or faulty payload assembly.

Loading next visibility...
Identifier
42531, 1970-025SM
Orbit
SSO
Country
Flag of USUS
Related business
Manufacturer
Unknown
Mission
Spacecraft
Bus & Motor
Unknown
Mass
Unknown
Launch date (UTC)
1970-04-08 (56 years ago)
Launch vehicle
Unknown
Launch site
Air Force Western Test Range (AFWTR)
Object type
Payload
Rocket body
Debris
Shape & HBR
Unknown shape, 0.1 m
Radar Cross Section
Small (<0.1 m²)

Expand to show TLE details & history
Last TLE update: 1 day ago

TLE from 1 day ago
0 THORAD AGENA D DEB
1 42531U 70025SM  26126.55650789  .00000224  00000-0  41499-3 0  9999
2 42531  99.7866 242.9642 0052090  24.5877  41.0910 13.50319815613191
Epoch: 2026-05-06T13:21Z
TLE epoch observation values (Epoch: 2026-05-06T13:21:22.281Z)
Latitude
64.34657°
Longitude
157.27153°
Altitude
1,052.926 km
Speed
7.346 km/s
True Right ascension
14h 48m 07s
True Declination
64° 13' 03"
Sunlit
Object was in daylight at epoch
Visualization orbit readout
Latitude
Unknown
Longitude
Unknown
Altitude
Unknown
Speed
Unknown
Apparent Right ascension
Unknown
Apparent Declination
Unknown
Sunlit
N/A
Visualization observer readout
Local Sidereal Time
03:09:36
Azimuth
Unknown
Elevation
Unknown
Doppler factor
Unknown
Orbital elements
Apogee altitude
1,107.176 km
Perigee altitude
1,029.598 km
Semi-major axis
7,446.524 km
Eccentricity
0.00521
Inclination
99.7866°
RAAN
242.9642°
Arg. of periapsis
24.5877°
True anomaly
41.48525°
Mean anomaly
41.091°
Eccentric anomaly
41.28793°
Mean motion
3.37764 °/min
Orbital period
106.58 mins
BSTAR
0.00041499

Documentation

Showing up to 5 results
|